Volver al catálogo

NUSAT-41

C PAYNE-G

ActivoCienciaSSO
NORAD 56944·PAYLOAD·🇦🇷 Argentina

Lanzado Jun 12, 2023 desde Vandenberg Space Force Base

Loading…

Próximos Pases (próximas 24 horas)

TLE

ActualizadoSource: Space-Track

Época: Sep 14, 2026, 22:02 UTC

1 56944U 23084N   26257.91846306  .00008645  00000-0  29694-3 0  9990
2 56944  97.5644  36.1513 0007560  12.8526 347.2906 15.30349061181504

Sigue NUSAT-41 en tiempo real con AllMySat

Download on the App Store